Simultaneous Nadir Overpasses (SNOs) Predictions

Prediction of SNOs between GOES-14 and NOAA-20 Satellite Orbit:

Table of predicted SNOs for the next 14.0 days since TLE Epoch: 3/6/2020
Index Date Time (GOES-14) GOES-14 Lat,Lon NOAA-20 Lat,Lon Distance(km) Time Diff (sec)
1 03/07/2020 20:36:24 -0.10,-104.03 -0.82,-107.32 374.41 80
2 03/08/2020 20:15:00 -0.10,-104.02 0.17,-102.78 141.30 80
3 03/10/2020 08:36:49 0.10,-104.18 0.96,-108.06 442.53 80
4 03/11/2020 08:20:45 0.10,-104.18 -0.04,-103.53 74.33 80
5 03/13/2020 20:23:57 -0.10,-104.03 -0.18,-104.29 29.69 80
6 03/14/2020 20:02:33 -0.10,-104.03 0.87, -99.77 486.23 80
7 03/16/2020 08:24:21 0.11,-104.17 0.32,-105.03 98.32 80
8 03/17/2020 08:08:18 0.11,-104.18 -0.74,-100.51 418.63 80
9 03/18/2020 20:30:14 -0.11,-104.04 -0.48,-105.81 200.18 80
10 03/19/2020 20:08:50 -0.12,-104.04 0.52,-101.27 315.76 80




NCC Satellite Simultaneous Nadir Overpasses (SNOs) Prediction Service
